User: anonymous   Login
Location: Napier
(39.4830°S, 176.9170°E)
Time: 05:06:15
(UTC+13:00)
Language:

Cosmos 1763 Rocket - Orbit

View from above orbital plane
View from above orbital plane
View from above satellite
View from above satellite

Ground track
Ground track

The orbit data is extracted from the following two-line orbital elements,

1 16864U 86052B   19292.11921061 -.00000031  00000-0 -14516-5 0  9998
2 16864  74.0278 313.9534 0033503 202.3865 157.5830 14.40558475745887
Epoch (UTC): 19 October 2019 02:51:39
Eccentricity: 0.0033503
inclination: 74.0278°
perigee height: 733 km
apogee height: 780 km
right ascension of ascending node: 313.9534°
argument of perigee: 202.3865°
revolutions per day: 14.40558475
mean anomaly at epoch: 157.5830°
orbit number at epoch: 74588

The dashed part of the orbit path shows where the satellite is in the earth's shadow,  

DLR